TimeMST,TemperatureF,Dew PointF,Humidity,Sea Level PressureIn,VisibilityMPH,Wind Direction,Wind SpeedMPH,Gust SpeedMPH,PrecipitationIn,Events,Conditions,WindDirDegrees,DateUTC
12:56 AM,41.0,19.0,41,29.93,10.0,West,28.8,35.7,N/A,,Clear,260,2013-01-18 07:56:00
1:56 AM,41.0,19.0,41,29.93,10.0,West,29.9,36.8,N/A,,Clear,260,2013-01-18 08:56:00
2:56 AM,41.0,18.0,40,29.92,10.0,WSW,38.0,47.2,N/A,,Clear,250,2013-01-18 09:56:00
3:56 AM,39.9,18.0,41,29.92,10.0,West,31.1,36.8,N/A,,Clear,260,2013-01-18 10:56:00
4:56 AM,37.9,18.0,45,29.91,10.0,West,24.2,-,N/A,,Clear,270,2013-01-18 11:56:00
5:56 AM,39.9,16.0,38,29.89,10.0,West,21.9,28.8,N/A,,Clear,270,2013-01-18 12:56:00
6:56 AM,39.0,18.0,43,29.88,10.0,West,21.9,-,N/A,,Clear,260,2013-01-18 13:56:00
7:56 AM,39.0,18.0,43,29.89,10.0,WSW,24.2,29.9,N/A,,Scattered Clouds,250,2013-01-18 14:56:00
8:56 AM,39.0,17.1,41,29.88,10.0,West,28.8,40.3,N/A,,Clear,260,2013-01-18 15:56:00
9:56 AM,39.9,18.0,41,29.88,10.0,West,27.6,32.2,N/A,,Clear,260,2013-01-18 16:56:00
10:56 AM,41.0,18.0,40,29.91,10.0,West,27.6,34.5,N/A,,Clear,270,2013-01-18 17:56:00
11:56 AM,42.1,21.0,43,29.90,10.0,West,12.7,-,N/A,,Clear,280,2013-01-18 18:56:00
12:56 PM,43.0,19.9,40,29.88,10.0,West,15.0,-,N/A,,Clear,280,2013-01-18 19:56:00
1:56 PM,44.1,19.0,37,29.86,10.0,West,23.0,31.1,N/A,,Clear,280,2013-01-18 20:56:00
2:56 PM,46.0,19.0,34,29.86,10.0,West,15.0,-,N/A,,Clear,280,2013-01-18 21:56:00
3:56 PM,44.1,19.0,37,29.87,10.0,West,24.2,31.1,N/A,,Clear,280,2013-01-18 22:56:00
4:56 PM,41.0,19.0,41,29.89,10.0,West,28.8,36.8,N/A,,Clear,270,2013-01-18 23:56:00
5:56 PM,39.0,21.0,49,29.91,10.0,West,26.5,35.7,N/A,,Clear,280,2013-01-19 00:56:00
6:56 PM,37.9,19.9,48,29.94,10.0,West,25.3,-,N/A,,Clear,270,2013-01-19 01:56:00
7:56 PM,37.0,19.0,48,29.96,10.0,WSW,18.4,-,N/A,,Clear,250,2013-01-19 02:56:00
8:56 PM,35.1,19.0,52,29.97,10.0,WSW,20.7,-,N/A,,Clear,250,2013-01-19 03:56:00
9:56 PM,39.0,18.0,43,29.97,10.0,West,28.8,36.8,N/A,,Clear,260,2013-01-19 04:56:00
10:56 PM,39.9,17.1,40,29.98,10.0,West,32.2,40.3,N/A,,Clear,270,2013-01-19 05:56:00
11:56 PM,37.9,17.1,43,30.02,10.0,West,23.0,28.8,N/A,,Clear,280,2013-01-19 06:56:00